Regional Weather Roundup
Issued by NWS Grand Forks, ND

Home | Current Version | Previous Version | Text Only | Print | Product List | Glossary Off
Versions: 1 2 3 4 5 6 7 8 9 10 11 12 13 14 15 16 17 18 19 20 21 22 23 24 25 26 27 28 29 30 31 32 33 34 35 36 37 38 39 40 41 42 43 44 45 46 47 48 49 50

000
ASUS43 KFGF 270231
RWRFGF
PRAIRIE TO PINES  WEATHER ROUNDUP
NATIONAL WEATHER SERVICE EASTERN NORTH DAKOTA/GRAND FORKS ND
800 PM CST WED NOV 26 2014

 **SATELLITE DATA USED TO AUGMENT SKY COVER AT AUTOMATED STATIONS**
 *****  WEATHER ACROSS EASTERN NORTH DAKOTA  *****

CITY           SKY/WX    TMP DP  RH WIND       PRES   REMARKS
GRAND FORKS    CLEAR     -9 -14  78 N7        30.53S WCI -24
GRAND FRKS AFB PTCLDY   -10 -15  79 N5        30.53S WCI -22
GRAND FRKS NWS   N/A     -6 N/A N/A VRB3        N/A
DEVILS LAKE    MOCLDY    -8 -20  54 CALM      30.44F
FARGO          PTCLDY    -5 -11  75 N7        30.53R WCI -19
WAHPETON ARPT  PTCLDY     0  -8  71 N9        30.51R WCI -16
$$

 ***** WEATHER ACROSS CENTRAL AND WESTERN NORTH DAKOTA  *****

CITY           SKY/WX    TMP DP  RH WIND       PRES   REMARKS
BISMARCK       MOCLDY    -6 -11  79 NE6       30.46R WCI -19
MINOT          MOCLDY   -12 -15  86 CALM      30.44S
JAMESTOWN      MOCLDY   -19 -21  90 NW5       30.46S WCI -32
MINOT AFB      MOCLDY   -23 -29  73 W3        30.45R
GARRISON         N/A    -10 -15  78 NE5       30.41F WCI -22
WILLISTON      CLOUDY     9   3  77 NE5       30.38S WCI   1
DICKINSON      CLOUDY    12   8  84 SE7       30.31R WCI   1
HETTINGER      MOCLDY    13  10  88 SE6       30.32S WCI   4
$$

 *****  OTHER AIRPORT OBSERVATIONS IN OUR AREA  *****

CITY           SKY/WX    TMP DP  RH WIND       PRES   REMARKS
WALHALLA         N/A    -11 -17  77 CALM      30.53F
GRAFTON AIRPOR FAIR      -6 -11  77 N5        30.54F WCI -17
VALLEY CITY AR FAIR      -8 -13  77 NW8       30.47S WCI -23
CANDO          FAIR     -13 -17  84 W3        30.47S
CAVALIER APRT  FAIR     -11 -15  84 CALM      30.53F
GWINNER        CLEAR     -6 -13  71 W5        30.49S WCI -17
SHEYENNE NWR     N/A     -7 -14  72 NW2       29.95
ROLLA          FAIR     -11 -17  77 CALM      30.42S
 ***** THE ABOVE OBSERVATIONS ARE NON NWS ARE NOT QUALITY
       CONTROLLED AND MAY MIS-REPORT RAIN FOR SNOW...
$$

  *****  WEATHER ACROSS NORTHERN MINNESOTA  *****

CITY           SKY/WX    TMP DP  RH WIND       PRES   REMARKS
FLAG ISLAND    CLEAR     -8 -11  84 NW8       30.45R WCI -23
WARROAD        PTCLDY    -8 -13  77 NW5       30.47R WCI -19
ROSEAU         PTCLDY    -9 -15  77 NW5       30.49R WCI -21
HALLOCK        PTCLDY   -11 -17  77 NW5       30.54R WCI -23
THF RVR FALLS  CLEAR     -6 N/A N/A N10       30.48R WCI -23
BAUDETTE       PTCLDY    -9 -13  83 NW5       30.43R WCI -20
WASKISH        CLEAR     -4  -8  84 CALM      30.43S
CROOKSTON      CLEAR     -6  -9  84 N8        30.53S WCI -21
STEPHEN NDAWN    N/A     -8 -13  77 NW3         N/A
GREENBUSH NDAW   N/A     -9 -15  77 W3          N/A
$$
  *****  WEATHER ACROSS CENTRAL AND WEST MINNESOTA  *****

CITY           SKY/WX    TMP DP  RH WIND       PRES   REMARKS
FOSSTON        CLEAR     -9 -15  77 NW7       30.46R WCI -24
BEMIDJI        CLEAR     -9 -14  80 NW7       30.41R WCI -24
PARK RAPIDS    CLEAR     -6 -11  79 NW8       30.40R WCI -21
ELBOW LAKE     FAIR      -2  -6  82 NW12      30.45R WCI -19
WADENA         CLEAR     -2  -8  78 NW7       30.40R WCI -16
DETROIT LAKES  FLURRIES  -4  -8  84 N7        30.44S WCI -18
MOORHEAD       CLEAR     -8  -9  92 NW5       30.53R WCI -19
FERGUS FALLS   CLEAR     -2  -9  71 N14       30.51R WCI -21
MORRIS MN      PTCLDY     0  -6  78 NW15      30.44R WCI -20
STAPLES        CLEAR      0  -8  71 N10       30.40R WCI -17
$$
  *****  WEATHER ELSEWHERE ACROSS MINNESOTA  *****

CITY           SKY/WX    TMP DP  RH WIND       PRES   REMARKS
DULUTH         CLEAR      6  -4  63 N9        30.29R WCI  -8
INTRNTL FALLS  CLEAR     -5 -10  79 NW6       30.40R WCI -18
ELY            CLEAR     -2  -6  84 NW5       30.32R WCI -12
CLOQUET        CLEAR      7  -6  56 NW9       30.31S WCI  -7
WHEATON        CLEAR     -2  -8  78 NW8       30.52R WCI -17
BRAINERD       CLEAR      4  -5  66 N16       30.38R WCI -15
HIBBING        FAIR       2  -7  66 N12       30.34R WCI -15
ALEXANDRIA     CLEAR      2  -6  69 N13       30.39R WCI -15
SAINT CLOUD    CLOUDY    15   0  51 N15       30.35R WCI   0
MINNEAPOLIS    CLOUDY    21  12  68 N8        30.31R WCI  11
$$

  *****  WEATHER ACROSS SOUTH DAKOTA  *****

CITY           SKY/WX    TMP DP  RH WIND       PRES   REMARKS
SIOUX FALLS    CLOUDY    13   4  67 N15       30.40R WCI  -3
BROOKINGS      NOT AVBL
WATERTOWN      MOCLDY     3  -6  66 N13       30.40R WCI -14
HURON          CLOUDY     8   1  73 N13       30.47R WCI  -8
SISSETON         N/A     -2  -7  79 N10       30.48R WCI -19
ABERDEEN       PTCLDY     2  -5  72 N10       30.49S WCI -14
MITCHELL       CLOUDY    12   3  67 N12       30.46R WCI  -2
PIERRE         CLOUDY    16  10  77 E8        30.40R WCI   5
MOBRIDGE       PTCLDY     7   1  76 E10       30.41R WCI  -8
RAPID CITY     FLURRIES  28  25  88 CALM      30.28R
$$

  *****  SOME WEATHER IN NEARBY STATES *****

CITY           SKY/WX    TMP DP  RH WIND       PRES   REMARKS
GLASGOW MT     CLOUDY    17  11  77 E18       30.27S WCI   1
GREAT FALLS MT FOG       23  23 100 CALM      30.04F VSB 1/4
CHEYENNE WY    MOCLDY    26  21  81 SW10      30.20R WCI  16
SCOTTSBLUFF NE MOCLDY    19  17  92 E8        30.27S FOG     WCI   9
OMAHA NE       CLOUDY    24  18  77 N22G31    30.40R WCI   9
DES MOINES IA  LGT SNOW  29  25  85 N13       30.28R FOG     WCI  19
DAVENPORT IA   CLOUDY    26  19  74 N8        30.21R WCI  18
CHICAGO IL     CLOUDY    29  23  78 N7        30.14R WCI  22
EAU CLAIRE WI  MOCLDY    22  15  75 NW9       30.24R WCI  12
LA CROSSE WI   LGT SNOW  25  22  88 NW7       30.25R FOG     WCI  17
$$

  *****  SOME NATIONAL WEATHER *****

CITY           SKY/WX    TMP DP  RH WIND       PRES   REMARKS
LA GUARDIA NY  LGT SNOW  35  33  92 N18G29    29.79S FOG     WCI  24
RALEIGH NC     PTCLDY    39  37  92 E3        30.05F
ATLANTA GA     MOCLDY    47  26  44 S7        30.07S
NEW ORLEANS LA CLEAR     56  43  61 SW8       30.23R
OKLAHOMA CITY  PTCLDY    44  22  41 N17G26    30.34R
ALBUQUERQUE NM PTCLDY    53  23  31 NW5       30.36R
SALT LAKE CITY PTCLDY    47  30  51 SE10      30.36R
LOS ANGELES CA CLEAR     67  47  48 W6        30.13S
BOISE ID       CLOUDY    48  39  71 SE6       30.21F
SEATTLE WA     CLOUDY    57  52  83 CALM      29.95F
$$

*** WEATHER ACROSS MANITOBA...SASKATCHEWAN AND ONTARIO ***
                ***ONTARIO***

CITY           SKY/WX    TMP DP  RH WIND       PRES   REMARKS
GERALDTON      PTCLDY    -9 -17  70 N5        30.30S WCI -21
THUNDER BAY    PTCLDY     1  -6  71 N3        30.37R
SIOUX LOOKOUT  CLEAR     -8 -13  77 N7        30.37S WCI -22
TORONTO        CLOUDY    34  23  64 NE6       30.08S
BIG TROUT LK   CLEAR    -17 -22  76 W7        30.37R WCI -33
PICKLE LAKE    CRYSTALS -13 -20  70 W6        30.33F WCI -27
DRYDEN         CLEAR     -8 -13  77 NW5       30.37S WCI -19
KENORA         CLEAR     -8 -13  77 NW8       30.41S WCI -23
$$
                *** MANITOBA***

CITY           SKY/WX    TMP DP  RH WIND       PRES   REMARKS
BRANDON        CLEAR    -11 -17  77 W8        30.48R WCI -28
DAUPHIN        CLEAR    -17 -22  76 SW6       30.49F WCI -31
ISLAND LAKE    CLEAR    -13 -20  70 W6        30.44S WCI -27
PILOT MOUND      N/A     -9 -13  84 W3          N/A
THE PAS        CLEAR    -15 -20  76 S5        30.44F WCI -27
THOMPSON       CLEAR    -17 -22  76 W6        30.37F WCI -31
WINNIPEG       CLEAR    -13 -18  77 W7        30.55R WCI -29
LYNN LAKE      CLEAR    -13 -17  84 SW8       30.24F WCI -30
CHURCHILL      PTCLDY    -6 -13  71 SW15      30.17  WCI -27
GILLAM         CLEAR    -15 -20  76 SW10      30.35  WCI -35
$$
                ***SASKATCHEWAN***

CITY           SKY/WX    TMP DP  RH WIND       PRES   REMARKS
ESTEVAN        PTCLDY   -13 -17  84 SE6       30.39F WCI -27
KINDERSLEY     MOCLDY     7   3  85 E6        30.19F WCI  -3
LLOYDMINSTER   CLOUDY    12  10  92 S12       30.17F WCI  -2
PRINCE ALBERT  CLEAR     -9 -13  84 CALM      30.35F
REGINA         PTCLDY    -4  -9  77 SE12      30.37S WCI -22
YORKTON        CLEAR    -13 -17  84 S6        30.42S WCI -27
N. BATTLEFORD  CLOUDY     7   3  85 SE10      30.26F WCI  -8
LA RONGE       CLEAR     -6 -11  77 S6        30.30F WCI -18
SASKATOON      CLOUDY     5  -2  72 S9        30.33F WCI  -9
SWIFT CURRENT  MOCLDY    16  14  93 S13       30.18F WCI   2
$$
NOTE: THESE ARE AUTOMATED STATIONS WITH LIMITED QUALITY CONTROL
      "FAIR" INDICATES FEW OR NO CLOUDS BELOW 12,000 FEET WITH NO
      SIGNIFICANT WEATHER AND/OR OBSTRUCTIONS TO VISIBILITY.
      SKY/WX - SKY CONDITION AND SIGNIFICANT WEATHER.
      TMP - AIR TEMPERATURE.    DP   - DEWPOINT TEMPERATURE.
      RH  - RELATIVE HUMIDITY.  PRES - PRESSURE.
      HX  - HEAT INDEX.         WCI  - WIND CHILL INDEX.
$



USA.gov is the U.S. government's official web portal to all federal, state and local government web resources and services.